{"data":{"norad_id":63959,"epoch":"2026-05-25T04:44:26.002752Z","epoch_age_seconds":48208,"freshness":"FRESH","line1":"1 63959U 25099H   26145.19752318  .00021902  00000+0  80252-3 0  9994","line2":"2 63959  43.0044 104.4558 0001745 272.0998  87.9653 15.27601818 59034","mean_motion":15.27601818,"eccentricity":0.0001745,"inclination_deg":43.0044,"raan_deg":104.4558,"arg_perigee_deg":272.0998,"mean_anomaly_deg":87.9653,"bstar":0.00080252,"rev_number":5903,"period_min":94.265402347145,"perigee_km":481.7865003026,"apogee_km":484.18103144989,"semimajor_km":6861.1207658762,"source":"CELESTRAK","updated_at":"2026-05-25T13:38:20.212140Z"}}